Location: Browne Barr
(41.2080°N, 111.9480°W)
Time: 00:11:47
(UTC+00:00)

STARLINK-1273 - Pass Details

Date: 08 April 2020
Orbit: 549 x 551 km, 53.0° (Epoch: 27 May)

Event Time Altitude Azimuth Distance (km) Brightness Sun altitude
Exits shadow 10:45:20 10° 326° (NW) 1,844 6.3 -23.8°
Reaches altitude 10° 10:45:23 10° 326° (NW) 1,834 6.3 -23.8°
Maximum altitude 10:48:07 17° 7° (N) 1,450 6.2 -23.4°
Drops below altitude 10° 10:50:52 10° 49° (NE) 1,834 7.4 -23.0°
Sets 10:53:47 0° 70° (ENE) 2,729 8.5 -22.5°
